Temperature
20 20 19 19 19 19 18 18 18 18 18 17 17 17 17 17 17 17 17 16 16 16 16 16 16 16 16 16 16 16 15 15 15 15 15 14 14 14 14 14 14 14 14
20 20 20 19 19 18 18 18 18 18 17 17 17 17 17 17 17 17 16 16 16 16 16 16 16 16 16 16 16 15 15 15 15 15 14 14 14 14 13 13 13 13 13
20 20 20 19 19 19 18 18 18 18 17 17 17 17 17 17 17 16 16 16 16 16 16 16 16 16 15 15 15 15 15 15 15 14 14 14 13 13 13 12 12 12 12
20 20 20 19 19 19 18 18 18 18 17 17 17 17 16 16 16 16 16 16 16 16 16 15 15 15 15 15 15 15 15 14 14 14 14 13 13 13 12 12 12 11 11
20 19 19 19 19 19 18 18 18 18 17 17 17 17 16 16 16 16 16 15 15 15 15 15 15 15 15 15 14 14 14 14 14 14 13 13 13 12 12 12 11 11 11
20 20 19 19 19 19 18 18 18 17 17 17 17 16 16 16 16 16 16 15 15 15 15 15 14 15 15 15 14 14 14 14 14 13 13 13 13 12 12 12 11 11 10
20 20 19 19 19 18 18 18 17 17 17 17 16 16 16 16 16 16 15 15 15 15 14 14 14 14 14 14 14 14 14 13 13 13 13 13 12 12 12 11 11 11 10
20 20 20 19 19 18 18 18 17 17 17 17 16 16 16 16 16 15 15 15 14 14 14 14 14 14 14 14 13 13 13 13 13 13 12 12 12 12 11 11 11 10 10
20 19 19 19 18 18 18 17 17 17 17 16 16 16 15 15 15 15 15 14 14 14 14 14 13 13 13 13 13 13 13 13 12 12 12 12 12 11 11 11 10 10 10
19 19 19 19 18 18 17 17 17 17 16 16 16 15 15 15 15 15 14 14 14 13 13 13 13 13 13 13 12 12 12 12 12 12 12 11 11 11 10 10 10 10 10
19 19 18 18 18 17 17 17 17 16 16 16 16 15 15 15 15 14 14 14 13 13 13 13 13 13 12 12 12 12 12 11 11 11 11 11 10 10 10 10 9 9 10
19 18 18 18 17 17 17 16 16 16 15 15 15 15 14 14 14 14 14 14 13 13 12 12 12 12 12 12 12 12 11 11 11 10 10 10 10 10 9 9 9 9 9
18 18 18 17 17 17 16 16 16 15 15 15 14 14 14 14 14 14 13 13 13 12 12 12 12 12 12 11 11 11 11 10 10 10 10 10 9 9 9 9 8 8 8
17 17 17 17 16 16 16 15 15 15 14 14 14 14 13 13 13 13 13 13 12 12 12 11 11 11 11 11 10 10 10 10 10 10 10 9 9 9 8 8 8 8 8
17 17 16 16 16 15 15 15 15 14 14 14 14 13 13 13 13 13 12 12 12 11 11 11 10 10 10 10 10 10 9 9 9 9 9 9 9 8 8 8 8 8 8
16 16 16 15 15 15 15 14 14 14 14 14 13 13 13 13 12 12 12 12 11 11 11 10 10 10 10 10 9 9 9 9 9 9 9 9 8 8 8 8 8 8 8
16 16 15 15 15 14 14 14 13 13 13 13 13 12 12 12 12 12 11 11 11 11 10 10 10 9 9 9 9 9 9 9 8 8 8 8 8 8 8 8 8 8 8
15 15 15 14 14 14 14 13 13 13 12 12 12 12 12 11 11 11 11 10 10 10 10 10 9 9 9 9 9 9 9 8 8 8 8 8 8 8 7 7 7 7 8
14 14 14 13 13 13 13 13 12 12 12 11 11 11 11 11 11 10 10 10 10 10 10 9 9 9 9 9 9 8 8 8 8 8 8 7 7 7 7 7 7 7 7
13 13 13 13 13 13 12 12 12 12 11 11 11 11 11 10 10 10 10 10 10 10 9 9 9 9 8 8 8 8 8 8 7 7 7 7 7 7 7 7 7 7 7
13 13 13 12 12 12 12 12 12 11 11 11 11 11 11 10 10 10 10 10 9 9 9 9 8 8 8 8 8 8 7 7 7 7 7 7 7 7 7 7 7 7 7
12 12 12 12 12 11 11 11 11 11 11 11 10 10 10 10 10 10 9 9 9 9 9 8 8 8 8 8 7 7 7 7 7 7 7 6 6 6 6 6 7 7 7
12 12 11 11 11 11 11 11 11 10 10 10 10 10 10 10 10 9 9 9 9 8 8 8 8 8 7 7 7 7 6 6 6 6 6 6 6 6 6 6 6 6 6
11 11 11 11 11 11 11 10 10 10 10 10 10 10 9 9 9 9 9 8 8 8 8 7 7 7 7 7 7 6 6 6 6 6 6 6 6 6 6 6 6 6 6
11 11 10 10 10 10 10 10 10 10 10 9 9 9 9 9 8 8 8 8 8 7 7 7 7 7 6 6 6 6 6 6 6 5 5 5 5 5 5 6 6 6 6
10 10 10 10 10 10 10 9 9 9 9 9 8 8 8 8 8 7 7 7 7 7 7 7 6 6 6 6 6 6 6 5 5 5 5 5 5 5 5 5 5 5 6
Wind_Speed
8 8 7 7 7 6 5 5 5 4 4 4 3 3 3 3 3 3 3 3 3 3 3 3 3 3 3 3 4 4 4 4 4 3 1 1 2 2 3 4 4 5 7
8 8 7 7 7 6 6 5 5 5 4 4 3 3 3 2 2 3 3 3 3 4 3 3 3 3 3 3 3 3 3 3 4 4 2 2 1 3 3 3 4 6 8
9 8 8 8 7 7 6 5 5 4 4 3 3 3 2 2 2 2 2 2 2 2 2 2 2 2 3 2 3 3 2 2 3 4 3 2 2 3 3 4 5 6 7
9 9 8 8 7 6 6 5 5 4 4 4 3 2 2 1 1 1 1 1 1 1 1 1 1 1 1 1 1 1 2 2 3 4 4 3 3 3 3 4 4 3 4
9 9 8 7 7 6 6 5 5 4 4 3 3 3 2 2 0 1 1 1 1 0 0 1 1 3 3 1 1 1 2 3 3 3 4 4 4 5 4 4 4 4 3
9 9 8 8 7 7 6 6 5 4 4 3 3 2 2 1 4 3 2 1 0 1 1 1 2 3 4 3 3 2 1 3 3 3 3 4 5 5 5 5 5 5 3
10 9 9 9 8 8 7 7 6 5 4 4 3 3 3 4 4 2 2 1 1 1 1 1 1 2 2 2 3 3 2 2 1 3 3 3 4 5 6 6 5 4 3
10 9 9 9 8 8 7 7 6 5 5 4 3 3 3 4 4 2 1 1 2 2 1 1 1 1 2 2 2 2 3 3 2 1 1 2 3 4 5 5 5 4 3
9 9 9 9 8 8 7 7 6 5 5 4 4 3 3 4 4 2 2 2 2 2 2 2 1 2 4 2 2 3 3 3 6 6 6 6 7 6 6 5 6 5 3
9 9 8 8 8 8 8 7 6 5 5 5 4 4 3 3 4 2 3 2 2 2 2 2 4 3 3 2 1 3 3 3 3 5 5 6 6 7 5 4 5 5 3
8 8 8 8 8 8 7 7 6 6 6 5 5 4 4 3 5 3 2 2 2 2 2 1 3 5 3 2 1 1 2 2 3 4 4 4 4 4 4 3 2 2 3
8 9 8 8 7 7 7 6 6 6 6 6 5 4 4 4 3 4 2 1 2 2 1 1 3 5 3 1 1 3 1 2 3 3 4 3 3 3 3 3 2 1 1
8 8 9 8 7 7 8 7 6 6 5 5 5 5 4 4 5 6 5 3 0 1 2 5 4 5 5 4 3 2 3 2 3 3 3 3 3 3 3 3 4 3 2
7 8 8 8 7 7 6 6 6 6 5 5 5 4 4 4 4 4 5 5 5 4 3 5 6 4 3 3 4 4 2 1 2 2 3 3 3 4 3 3 3 4 3
6 6 6 7 7 6 5 3 4 3 3 3 4 4 4 4 3 2 3 4 4 3 4 4 4 4 4 4 3 3 2 3 2 2 3 3 3 3 3 3 3 4 4
6 6 5 5 5 6 6 4 5 3 5 5 3 1 3 4 6 4 2 2 3 3 4 4 4 4 4 3 3 3 3 3 3 3 3 4 4 4 3 3 4 4 4
5 5 4 5 5 6 6 6 5 4 5 4 3 3 3 5 5 5 5 4 4 5 5 4 4 4 4 3 3 3 3 3 2 3 4 4 4 4 4 4 4 4 4
4 4 4 4 5 5 5 5 5 5 5 4 4 5 5 6 5 6 6 6 4 5 4 4 4 4 4 4 4 4 4 4 4 4 4 4 4 4 4 4 5 5 5
2 2 3 3 3 4 4 5 5 5 5 5 5 5 6 7 7 6 6 4 4 4 4 4 3 3 4 4 4 4 4 4 4 4 4 4 4 4 5 5 5 5 6
2 2 2 3 3 3 4 4 4 4 5 5 5 4 6 6 5 5 5 4 4 4 4 4 4 3 3 4 4 4 4 5 5 5 4 4 5 5 5 6 6 6 6
2 2 4 3 3 4 4 4 4 4 4 4 4 4 4 5 5 5 5 5 4 4 3 4 4 4 4 4 4 5 6 5 5 5 5 5 5 5 6 6 7 7 7
2 2 2 2 2 2 2 3 3 3 3 4 3 4 6 4 3 3 4 3 3 3 3 3 3 3 3 4 4 5 5 5 5 5 5 5 6 6 7 6 7 7 7
2 3 3 2 2 3 3 3 3 3 3 3 3 3 4 3 2 2 2 2 2 2 3 3 3 3 3 4 4 4 5 5 5 5 5 6 6 7 7 7 8 8 8
3 3 3 3 3 3 2 2 2 2 2 2 2 3 3 2 2 2 2 1 2 2 2 2 3 3 3 3 4 5 5 6 6 6 7 7 7 7 8 8 8 9 9
2 3 3 3 2 2 2 2 2 2 2 2 1 1 2 2 1 1 1 1 1 1 1 2 2 3 3 3 4 4 4 4 6 7 8 8 9 9 9 10 9 9 10
3 3 2 2 3 2 2 2 2 2 2 2 2 1 1 1 1 0 0 0 1 1 2 2 2 2 3 4 4 4 4 5 7 9 9 8 9 9 9 9 11 10 11
Wind_Direction
187 188 190 191 196 203 206 210 213 218 214 212 213 219 225 232 236 233 243 245 254 262 262 249 245 257 256 254 249 244 241 233 225 248 245 155 148 141 115 117 116 111 102
181 181 183 185 191 194 196 200 200 202 204 200 207 215 222 224 232 244 255 255 259 266 269 264 256 245 246 257 253 245 239 224 209 209 209 175 162 143 135 133 112 100 99
176 178 179 183 186 190 187 187 189 189 192 191 196 200 204 217 230 246 267 271 260 267 273 270 270 260 253 250 252 243 216 198 191 188 194 174 173 153 137 125 111 112 109
176 178 179 181 181 180 178 177 177 179 182 182 183 185 190 192 223 253 265 271 262 271 282 288 291 295 296 267 234 213 185 178 177 180 172 171 166 162 157 146 138 135 125
177 177 176 173 171 171 171 171 169 171 174 170 173 176 182 191 221 284 253 231 240 271 39 22 53 59 40 351 275 202 186 191 183 176 179 179 170 172 178 173 150 129 111
178 177 171 169 169 168 167 165 164 166 164 165 173 175 167 132 74 33 320 205 128 85 72 60 98 94 82 77 59 59 163 194 192 194 199 192 186 184 170 166 159 155 153
176 173 171 173 172 171 169 165 168 169 164 162 160 151 134 99 92 78 349 305 118 87 68 39 43 68 76 99 110 123 102 105 179 213 199 199 184 175 173 173 172 173 156
173 171 169 172 171 170 169 167 167 168 164 161 156 148 136 114 112 113 283 172 98 84 66 55 61 74 55 53 109 104 90 80 86 138 155 174 159 160 170 162 148 131 122
172 172 172 171 169 170 170 167 167 168 166 159 152 149 146 130 124 139 257 160 127 106 79 55 44 85 61 12 126 117 106 95 84 84 85 95 106 125 145 149 152 156 156
176 172 170 171 173 175 172 170 169 170 165 160 150 153 154 143 131 155 253 194 158 149 123 110 77 64 71 9 150 140 133 119 113 113 112 122 126 133 153 175 176 177 169
168 165 166 171 176 173 169 170 169 171 167 165 153 149 146 139 142 152 252 230 190 182 172 148 102 92 82 44 331 105 98 128 140 135 129 129 132 137 153 165 194 200 192
165 164 164 168 171 167 165 165 169 171 168 166 163 165 162 156 138 142 146 261 310 182 176 141 106 115 110 82 85 80 98 219 159 147 140 139 140 140 140 144 143 125 39
167 167 165 165 165 165 168 167 168 174 182 179 180 182 175 162 142 138 147 143 345 192 115 83 108 147 160 141 132 162 206 185 159 157 152 146 140 136 140 141 142 139 124
169 168 164 161 161 163 170 174 175 179 185 187 187 185 174 167 162 157 160 159 163 170 159 141 154 170 179 126 159 182 197 176 176 168 158 151 149 155 161 160 165 170 166
165 162 161 162 160 161 160 155 176 174 180 189 185 182 181 178 142 115 181 177 182 171 176 183 185 183 185 181 180 179 181 178 189 183 168 161 163 166 165 172 187 191 194
169 165 164 163 165 166 158 145 68 77 92 89 66 97 129 111 122 133 143 125 132 163 200 198 198 202 203 199 196 190 193 199 198 191 184 182 183 183 182 189 200 209 210
177 170 172 169 173 177 173 170 161 123 96 100 112 114 127 133 143 157 164 160 164 186 206 206 202 207 211 208 209 206 202 196 202 202 197 196 197 198 196 200 208 216 220
182 172 180 177 180 182 179 177 175 174 169 169 166 158 161 164 170 175 172 173 177 196 214 216 211 209 210 213 213 213 208 195 201 209 209 207 208 211 213 218 220 228 228
187 188 180 181 180 176 175 176 180 182 182 177 169 161 168 170 168 173 181 198 197 197 208 218 221 216 212 211 214 214 211 209 210 215 216 217 220 223 227 232 230 219 240
181 153 181 184 179 178 180 183 187 189 186 186 187 179 165 172 176 176 189 205 213 210 211 218 222 225 218 219 216 215 214 213 213 221 222 222 227 234 236 240 242 234 233
191 171 174 189 194 191 189 190 192 193 194 190 187 173 187 188 190 190 193 202 214 215 211 219 222 225 225 224 224 223 227 228 223 226 227 227 232 238 245 243 242 242 242
196 194 196 189 182 184 186 190 187 185 187 189 176 164 182 204 198 196 195 200 212 217 216 224 231 227 227 230 230 231 231 230 229 230 235 234 234 239 242 245 247 247 249
190 181 181 186 178 168 183 186 183 180 178 184 184 176 179 189 196 201 209 210 207 213 214 223 240 239 231 233 237 236 239 240 237 234 239 241 240 240 242 244 248 253 253
176 174 173 174 175 174 172 177 169 162 162 168 178 181 179 184 195 205 223 223 222 225 230 233 240 243 238 245 242 238 239 246 248 240 241 247 250 251 249 247 248 249 252
168 168 169 172 169 166 162 158 144 140 147 147 152 155 147 155 174 195 214 209 217 233 244 246 245 245 245 248 257 258 249 249 256 260 249 247 251 255 257 255 254 254 253
157 156 156 151 148 147 149 145 135 135 138 135 132 128 119 112 106 89 290 265 238 235 245 247 249 253 254 248 255 261 245 243 249 256 257 255 256 256 259 259 261 258 259
Height
1537 1538 1539 1541 1542 1543 1544 1544 1545 1545 1546 1546 1546 1546 1546 1547 1547 1547 1547 1547 1547 1547 1546 1546 1545 1545 1545 1545 1545 1545 1546 1546 1546 1546 1547 1547 1548 1548 1548 1548 1548 1548 1548
1535 1536 1538 1539 1540 1541 1542 1542 1543 1543 1544 1544 1544 1544 1544 1545 1545 1545 1545 1545 1544 1544 1544 1543 1543 1543 1542 1542 1542 1542 1542 1542 1543 1542 1543 1544 1545 1545 1545 1546 1546 1546 1546
1534 1535 1536 1537 1538 1539 1540 1540 1541 1541 1541 1541 1542 1542 1542 1542 1542 1542 1542 1542 1542 1542 1541 1541 1541 1540 1540 1539 1539 1539 1539 1539 1539 1540 1540 1541 1542 1542 1543 1543 1543 1543 1544
1532 1533 1534 1535 1536 1537 1538 1538 1539 1539 1539 1539 1540 1540 1540 1540 1540 1540 1540 1540 1540 1540 1539 1539 1539 1538 1538 1537 1537 1537 1537 1537 1537 1537 1538 1538 1539 1540 1540 1541 1541 1542 1542
1530 1532 1533 1534 1534 1535 1536 1537 1537 1537 1538 1538 1538 1538 1538 1538 1538 1538 1538 1538 1538 1538 1538 1537 1537 1536 1536 1536 1536 1535 1535 1535 1535 1535 1535 1536 1536 1537 1538 1539 1539 1540 1540
1528 1530 1531 1532 1532 1533 1534 1535 1535 1536 1536 1536 1536 1536 1536 1537 1537 1537 1537 1537 1537 1536 1536 1536 1535 1535 1534 1534 1534 1533 1533 1533 1533 1533 1533 1534 1534 1535 1535 1536 1537 1538 1539
1525 1527 1528 1529 1530 1531 1532 1533 1533 1534 1534 1534 1534 1535 1535 1535 1535 1535 1535 1535 1535 1535 1535 1535 1535 1534 1533 1532 1532 1532 1531 1531 1531 1532 1531 1531 1532 1532 1533 1534 1535 1536 1537
1522 1523 1525 1526 1528 1529 1529 1530 1531 1532 1532 1533 1533 1533 1533 1533 1534 1534 1534 1534 1534 1534 1534 1533 1533 1532 1532 1531 1531 1531 1530 1530 1530 1530 1530 1530 1530 1530 1531 1533 1533 1534 1535
1519 1520 1522 1524 1525 1526 1527 1528 1529 1530 1530 1531 1531 1531 1532 1532 1532 1532 1533 1533 1533 1533 1533 1532 1532 1531 1531 1530 1530 1530 1529 1529 1529 1528 1528 1528 1529 1529 1530 1531 1532 1533 1534
1516 1518 1519 1521 1523 1524 1525 1526 1527 1528 1529 1529 1529 1529 1530 1530 1530 1531 1531 1532 1532 1532 1531 1531 1530 1530 1529 1529 1529 1529 1528 1528 1528 1527 1527 1527 1528 1528 1529 1530 1531 1532 1533
1513 1515 1516 1518 1520 1521 1522 1523 1524 1525 1526 1527 1527 1527 1527 1528 1528 1529 1529 1530 1530 1530 1530 1530 1529 1528 1528 1528 1528 1528 1527 1527 1527 1527 1527 1527 1527 1527 1528 1529 1530 1531 1532
1511 1512 1513 1515 1517 1518 1520 1521 1522 1523 1524 1524 1525 1525 1525 1525 1526 1526 1527 1527 1528 1528 1528 1528 1527 1527 1527 1526 1526 1526 1526 1526 1527 1527 1527 1527 1527 1527 1527 1527 1528 1529 1529
1508 1509 1510 1512 1513 1515 1516 1517 1519 1520 1521 1522 1523 1523 1523 1523 1523 1524 1524 1525 1525 1526 1526 1526 1525 1525 1525 1525 1525 1525 1525 1525 1526 1526 1526 1526 1526 1525 1526 1526 1527 1527 1528
1505 1506 1507 1508 1510 1511 1513 1515 1516 1517 1518 1518 1519 1520 1520 1521 1521 1521 1521 1522 1523 1523 1523 1523 1524 1524 1524 1523 1523 1523 1523 1524 1524 1524 1524 1524 1524 1524 1524 1525 1526 1526 1527
1502 1504 1505 1506 1507 1509 1510 1512 1513 1514 1515 1516 1517 1517 1518 1518 1518 1519 1519 1519 1520 1521 1521 1522 1522 1522 1522 1522 1522 1522 1522 1522 1522 1522 1522 1522 1522 1523 1523 1523 1524 1525 1525
1500 1501 1502 1503 1505 1506 1507 1508 1509 1511 1511 1512 1513 1514 1514 1515 1515 1516 1516 1517 1517 1518 1519 1520 1519 1519 1520 1520 1520 1520 1520 1520 1520 1520 1520 1520 1520 1521 1521 1522 1522 1523 1524
1498 1498 1500 1501 1502 1503 1504 1505 1506 1507 1508 1509 1510 1510 1511 1512 1512 1513 1513 1514 1514 1515 1516 1517 1517 1517 1517 1517 1517 1517 1517 1517 1517 1517 1518 1518 1518 1519 1519 1520 1520 1521 1522
1496 1497 1497 1498 1499 1500 1501 1502 1503 1504 1505 1505 1506 1507 1508 1509 1509 1510 1510 1511 1511 1512 1513 1514 1514 1514 1514 1514 1514 1514 1514 1514 1514 1514 1515 1515 1516 1517 1517 1518 1518 1519 1519
1494 1495 1495 1496 1497 1498 1498 1500 1501 1502 1503 1503 1504 1504 1505 1505 1506 1507 1507 1508 1509 1509 1510 1510 1510 1510 1510 1510 1511 1511 1511 1511 1511 1511 1511 1512 1513 1513 1514 1515 1515 1515 1516
1492 1492 1493 1494 1495 1495 1496 1498 1499 1499 1500 1501 1501 1502 1502 1503 1503 1504 1504 1505 1506 1506 1506 1507 1507 1507 1507 1507 1507 1507 1507 1507 1507 1508 1508 1508 1509 1510 1510 1511 1512 1512 1512
1490 1490 1491 1492 1493 1493 1494 1495 1496 1497 1498 1498 1499 1499 1500 1501 1501 1502 1502 1502 1502 1503 1503 1503 1503 1503 1503 1503 1504 1503 1504 1504 1504 1504 1505 1505 1506 1506 1507 1508 1508 1509 1509
1488 1489 1489 1490 1490 1491 1492 1493 1494 1495 1495 1496 1496 1497 1497 1498 1499 1500 1499 1499 1499 1500 1500 1500 1500 1500 1499 1499 1500 1500 1500 1500 1500 1501 1501 1501 1502 1502 1503 1504 1504 1505 1505
1486 1487 1487 1488 1489 1489 1491 1491 1492 1492 1493 1494 1494 1495 1495 1495 1496 1496 1496 1496 1496 1496 1496 1496 1496 1496 1496 1496 1496 1496 1496 1497 1497 1497 1497 1498 1498 1499 1499 1500 1500 1500 1501
1485 1485 1486 1487 1487 1488 1489 1490 1490 1490 1491 1491 1491 1492 1492 1492 1493 1493 1493 1493 1493 1493 1493 1493 1493 1493 1492 1492 1492 1492 1492 1493 1493 1494 1494 1495 1495 1495 1496 1496 1496 1496 1496
1484 1484 1485 1485 1486 1486 1487 1488 1488 1488 1489 1489 1489 1489 1489 1490 1490 1490 1491 1490 1490 1490 1490 1490 1490 1489 1489 1489 1489 1489 1489 1489 1489 1490 1490 1491 1491 1491 1492 1492 1492 1491 1491
1482 1483 1484 1484 1485 1485 1486 1486 1487 1487 1488 1488 1488 1488 1488 1488 1488 1488 1488 1488 1488 1487 1487 1487 1487 1486 1486 1486 1485 1485 1485 1485 1486 1486 1486 1487 1487 1487 1487 1487 1487 1487 1486